User: anonymous   Login
Location: Gombori
(14.9797°N, 2.9419°W)
Time: 15:19:45
(UTC+00:00)
Language:

USA 32 - Orbit

View from above orbital plane
View from above orbital plane
View from above satellite
View from above satellite

Ground track
Ground track

The orbit data is extracted from the following two-line orbital elements,

1 19460U 88078A   21271.04408217 0.00000050  00000-0  18103-4 0    05
2 19460  84.9834  34.1492 0004524 225.7722 134.2277 14.33535729    01
Epoch (UTC): 28 September 2021 01:03:28
Eccentricity: 0.0004524
inclination: 84.9834°
perigee height: 777 km
apogee height: 783 km
right ascension of ascending node: 34.1492°
argument of perigee: 225.7722°
revolutions per day: 14.33535729
mean anomaly at epoch: 134.2277°
orbit number at epoch: 0

The dashed part of the orbit path shows where the satellite is in the earth's shadow,  

DLR